Orbital Elements at Epoch 2459200.5 (2020-Dec-17.0) TDB
Reference: JPL 20 (heliocentric ecliptic J2000)
Element | Value | Uncertainty (1-sigma) | Units |
e | .1573302389095559 | 4.6677e-08 | |
a | 2.700561845416594 | 1.8231e-08 | au |
q | 2.27568180508717 | 1.2135e-07 | au |
i | 15.05716876885186 | 5.5442e-06 | deg |
node | 135.7686203067239 | 1.9396e-05 | deg |
peri | 330.531469788687 | 3.3677e-05 | deg |
M | 97.26197194161809 | 2.2878e-05 | deg |
tp | 2458762.554379439826 (2019-Oct-06.05437944) | 0.00010278 | TDB |
period | 1620.9873217078 4.44 | 1.6415e-05 4.494e-08 | d yr |
n | .222086869637401 | 2.249e-09 | deg/d |
Q | 3.125441885746018 | 2.11e-08 | au |
|
| | Orbit Determination Parameters
Additional Information
|